| time (UTC) | temp F | wind direction | speed MPH | gust MPH | rain 1hr in | rain 24hr in | rain mn in | humidity % | barometer mb |
| 20260507005801 | 51 | 267 | 9.0 | 19.0 | 0.00 | 0.01 | 0.01 | 27 | 1014.0 |
| 20260507004744 | 52 | 331 | 9.0 | 18.0 | 0.00 | 0.01 | 0.01 | 27 | 1013.9 |
| 20260507003726 | 52 | 0 | 8.0 | 21.0 | 0.00 | 0.01 | 0.01 | 26 | 1013.7 |
| 20260507002717 | 52 | 0 | 14.0 | 21.0 | 0.00 | 0.01 | 0.01 | 26 | 1013.6 |
| 20260507001720 | 53 | 0 | 10.0 | 20.0 | 0.00 | 0.01 | 0.01 | 24 | 1013.2 |
| 20260507000721 | 53 | 348 | 11.0 | 25.0 | 0.00 | 0.01 | 0.01 | 25 | 1013.3 |
| 20260506233439 | 54 | 342 | 14.0 | 22.0 | 0.00 | 0.01 | 0.01 | 27 | 1012.7 |
| 20260506232412 | 54 | 0 | 14.0 | 22.0 | 0.00 | 0.01 | 0.01 | 28 | 1012.6 |
| 20260506231345 | 54 | 338 | 13.0 | 20.0 | 0.00 | 0.01 | 0.01 | 29 | 1012.5 |
| 20260506230324 | 54 | 0 | 14.0 | 22.0 | 0.00 | 0.01 | 0.01 | 31 | 1012.5 |
| 20260506224140 | 53 | 0 | 16.0 | 24.0 | 0.00 | 0.01 | 0.01 | 33 | 1012.3 |
| 20260506223119 | 52 | 339 | 15.0 | 24.0 | 0.00 | 0.01 | 0.01 | 33 | 1012.1 |
| 20260506220933 | 52 | 0 | 14.0 | 23.0 | 0.00 | 0.01 | 0.01 | 35 | 1012.0 |
| 20260506215955 | 50 | 342 | 15.0 | 22.0 | 0.00 | 0.01 | 0.01 | 39 | 1011.9 |
| 20260506215005 | 54 | 346 | 16.0 | 24.0 | 0.00 | 0.01 | 0.01 | 36 | 1011.7 |
| 20260506212841 | 52 | 0 | 18.0 | 26.0 | 0.00 | 0.01 | 0.01 | 39 | 1011.5 |
| 20260506211837 | 52 | 334 | 18.0 | 32.0 | 0.00 | 0.01 | 0.01 | 45 | 1011.5 |
| 20260506210833 | 53 | 336 | 20.0 | 32.0 | 0.00 | 0.01 | 0.01 | 38 | 1011.5 |
| 20260506204703 | 52 | 355 | 16.0 | 31.0 | 0.00 | 0.01 | 0.01 | 40 | 1010.9 |
| 20260506203652 | 51 | 0 | 19.0 | 31.0 | 0.00 | 0.01 | 0.01 | 44 | 1011.0 |
| 20260506202646 | 52 | 331 | 20.0 | 29.0 | 0.00 | 0.01 | 0.01 | 36 | 1011.0 |
| 20260506201658 | 52 | 0 | 14.0 | 25.0 | 0.00 | 0.01 | 0.01 | 48 | 1010.7 |
| 20260506200643 | 52 | 329 | 13.0 | 19.0 | 0.00 | 0.01 | 0.01 | 45 | 1010.2 |
| 20260506195615 | 51 | 0 | 13.0 | 24.0 | 0.00 | 0.01 | 0.01 | 48 | 1010.4 |
| 20260506194545 | 50 | 331 | 14.0 | 24.0 | 0.00 | 0.01 | 0.01 | 51 | 1010.1 |
| 20260506193528 | 51 | 0 | 13.0 | 28.0 | 0.00 | 0.01 | 0.01 | 48 | 1010.2 |
| 20260506192516 | 53 | 0 | 11.0 | 28.0 | 0.00 | 0.01 | 0.01 | 51 | 1010.1 |
| 20260506191517 | 51 | 0 | 11.0 | 22.0 | 0.00 | 0.01 | 0.01 | 55 | 1010.1 |
| 20260506190524 | 49 | 0 | 15.0 | 22.0 | 0.00 | 0.01 | 0.01 | 56 | 1010.3 |
| 20260506185523 | 48 | 0 | 13.0 | 20.0 | 0.00 | 0.01 | 0.01 | 64 | 1010.5 |
| 20260506184523 | 46 | 0 | 9.0 | 17.0 | 0.00 | 0.01 | 0.01 | 75 | 1010.5 |
| 20260506183458 | 43 | 265 | 3.0 | 16.0 | 0.00 | 0.01 | 0.01 | 81 | 1010.8 |
| 20260506181411 | 40 | 274 | 4.0 | 11.0 | 0.00 | 0.01 | 0.01 | 83 | 1011.4 |
| 20260506180422 | 39 | 0 | 4.0 | 11.0 | 0.00 | 0.01 | 0.01 | 84 | 1011.3 |
| 20260506175446 | 39 | 333 | 9.0 | 21.0 | 0.00 | 0.01 | 0.01 | 83 | 1011.5 |
| 20260506174434 | 40 | 331 | 14.0 | 32.0 | 0.00 | 0.00 | 0.00 | 82 | 1011.6 |
| 20260506173410 | 42 | 0 | 19.0 | 32.0 | 0.00 | 0.00 | 0.00 | 75 | 1011.2 |
| 20260506172408 | 46 | 0 | 17.0 | 27.0 | 0.00 | 0.00 | 0.00 | 64 | 1010.4 |
| 20260506171344 | 46 | 0 | 18.0 | 30.0 | 0.00 | 0.00 | 0.00 | 62 | 1010.1 |
| 20260506170340 | 47 | 0 | 19.0 | 30.0 | 0.00 | 0.00 | 0.00 | 63 | 1009.8 |
| 20260506165352 | 53 | 0 | 14.0 | 23.0 | 0.00 | 0.00 | 0.00 | 40 | 1008.7 |
| 20260506162049 | 54 | 261 | 7.0 | 18.0 | 0.00 | 0.00 | 0.00 | 40 | 1008.6 |
| 20260506161105 | 53 | 256 | 10.0 | 18.0 | 0.00 | 0.00 | 0.00 | 42 | 1008.6 |
| 20260506160057 | 52 | 254 | 9.0 | 17.0 | 0.00 | 0.00 | 0.00 | 43 | 1008.7 |
| 20260506155105 | 51 | 264 | 11.0 | 17.0 | 0.00 | 0.00 | 0.00 | 44 | 1008.8 |
| 20260506154114 | 50 | 238 | 6.0 | 18.0 | 0.00 | 0.00 | 0.00 | 47 | 1008.8 |
| 20260506153046 | 49 | 255 | 7.0 | 20.0 | 0.00 | 0.00 | 0.00 | 47 | 1008.9 |
| 20260506152023 | 49 | 252 | 7.0 | 20.0 | 0.00 | 0.00 | 0.00 | 48 | 1008.8 |
| 20260506151030 | 49 | 237 | 6.0 | 16.0 | 0.00 | 0.00 | 0.00 | 49 | 1008.7 |
| 20260506145955 | 47 | 258 | 1.0 | 0.0 | 0.00 | 0.00 | 0.00 | 52 | 1008.7 |
| 20260506143843 | 47 | 252 | 3.0 | 11.0 | 0.00 | 0.00 | 0.00 | 51 | 1008.9 |
| 20260506141727 | 47 | 258 | 3.0 | 12.0 | 0.00 | 0.00 | 0.00 | 53 | 1008.8 |
| 20260506140727 | 47 | 59 | 0.0 | 0.0 | 0.00 | 0.00 | 0.00 | 56 | 1008.7 |
| 20260506134602 | 44 | 72 | 0.0 | 0.0 | 0.00 | 0.00 | 0.00 | 61 | 1008.6 |
| 20260506133532 | 43 | 72 | 0.0 | 0.0 | 0.00 | 0.00 | 0.00 | 65 | 1008.5 |
| 20260506131351 | 37 | 73 | 0.0 | 0.0 | 0.00 | 0.00 | 0.00 | 72 | 1008.3 |
| 20260506130322 | 36 | 73 | 0.0 | 0.0 | 0.00 | 0.00 | 0.00 | 72 | 1008.2 |
| 20260506125316 | 36 | 73 | 0.0 | 0.0 | 0.00 | 0.00 | 0.00 | 73 | 1008.1 |
| 20260506124256 | 36 | 73 | 0.0 | 0.0 | 0.00 | 0.00 | 0.00 | 74 | 1008.0 |
| 20260506122118 | 35 | 74 | 0.0 | 0.0 | 0.00 | 0.00 | 0.00 | 76 | 1007.7 |
| 20260506121102 | 34 | 74 | 0.0 | 0.0 | 0.00 | 0.00 | 0.00 | 77 | 1007.6 |
| 20260506120109 | 33 | 105 | 0.0 | 0.0 | 0.00 | 0.00 | 0.00 | 78 | 1007.4 |
| 20260506115058 | 33 | 105 | 0.0 | 0.0 | 0.00 | 0.00 | 0.00 | 77 | 1007.3 |
| 20260506112920 | 33 | 105 | 0.0 | 0.0 | 0.00 | 0.00 | 0.00 | 78 | 1007.1 |
| 20260506111901 | 33 | 105 | 0.0 | 0.0 | 0.00 | 0.00 | 0.00 | 80 | 1007.2 |
| 20260506110827 | 32 | 105 | 0.0 | 0.0 | 0.00 | 0.00 | 0.00 | 82 | 1007.2 |
| 20260506105851 | 31 | 105 | 0.0 | 0.0 | 0.00 | 0.00 | 0.00 | 81 | 1007.0 |
| 20260506102628 | 31 | 105 | 0.0 | 0.0 | 0.00 | 0.00 | 0.00 | 81 | 1006.6 |
| 20260506100457 | 31 | 105 | 0.0 | 0.0 | 0.00 | 0.00 | 0.00 | 78 | 1006.3 |
| 20260506095426 | 32 | 105 | 0.0 | 0.0 | 0.00 | 0.00 | 0.00 | 77 | 1006.3 |
| 20260506094435 | 32 | 105 | 0.0 | 0.0 | 0.00 | 0.00 | 0.00 | 77 | 1006.2 |
| 20260506093437 | 32 | 105 | 0.0 | 0.0 | 0.00 | 0.00 | 0.00 | 76 | 1006.1 |
| 20260506092500 | 33 | 105 | 0.0 | 0.0 | 0.00 | 0.00 | 0.00 | 77 | 1006.2 |
| 20260506091455 | 33 | 105 | 0.0 | 0.0 | 0.00 | 0.00 | 0.00 | 76 | 1006.3 |
| 20260506085402 | 34 | 105 | 0.0 | 0.0 | 0.00 | 0.00 | 0.00 | 76 | 1006.3 |
| 20260506082202 | 34 | 105 | 0.0 | 0.0 | 0.00 | 0.00 | 0.00 | 74 | 1006.2 |
| 20260506081145 | 35 | 105 | 0.0 | 0.0 | 0.00 | 0.00 | 0.00 | 73 | 1006.2 |
| 20260506080126 | 36 | 105 | 0.0 | 0.0 | 0.00 | 0.00 | 0.00 | 71 | 1006.0 |
| 20260506073126 | 36 | 105 | 0.0 | 0.0 | 0.00 | 0.00 | 0.00 | 69 | 1006.1 |
| 20260506072110 | 36 | 105 | 0.0 | 0.0 | 0.00 | 0.00 | 0.00 | 68 | 1006.0 |
| 20260506071041 | 37 | 105 | 0.0 | 0.0 | 0.00 | 0.00 | 0.00 | 67 | 1005.9 |
| 20260506062016 | 39 | 105 | 0.0 | 0.0 | 0.00 | 0.00 | 0.00 | 64 | 1005.5 |
| 20260506061000 | 40 | 105 | 0.0 | 0.0 | 0.00 | 0.00 | 0.00 | 63 | 1005.3 |
| 20260506050845 | 42 | 107 | 0.0 | 0.0 | 0.00 | 0.00 | 0.00 | 64 | 1004.8 |
| 20260506041349 | 44 | 105 | 0.0 | 0.0 | 0.00 | 0.00 | 0.00 | 63 | 1003.8 |
| 20260506040321 | 44 | 105 | 0.0 | 0.0 | 0.00 | 0.00 | 0.00 | 64 | 1003.8 |
| 20260506035336 | 43 | 134 | 0.0 | 1.0 | 0.00 | 0.00 | 0.00 | 64 | 1003.9 |
| 20260506034314 | 44 | 157 | 0.0 | 0.0 | 0.00 | 0.00 | 0.00 | 62 | 1003.7 |
| 20260506032209 | 45 | 157 | 0.0 | 0.0 | 0.00 | 0.00 | 0.00 | 64 | 1003.3 |
| 20260506031201 | 45 | 157 | 0.0 | 1.0 | 0.00 | 0.00 | 0.00 | 62 | 1003.1 |
| 20260506030204 | 45 | 157 | 0.0 | 0.0 | 0.00 | 0.00 | 0.00 | 62 | 1002.7 |
| 20260506025131 | 46 | 157 | 0.0 | 0.0 | 0.00 | 0.00 | 0.00 | 60 | 1002.4 |
| 20260506024110 | 46 | 157 | 0.0 | 0.0 | 0.00 | 0.00 | 0.00 | 60 | 1002.2 |
| 20260506023036 | 47 | 157 | 0.0 | 0.0 | 0.00 | 0.00 | 0.00 | 57 | 1001.9 |
| 20260506022006 | 48 | 166 | 0.0 | 7.0 | 0.00 | 0.00 | 0.00 | 56 | 1001.7 |
| 20260506021004 | 48 | 173 | 0.0 | 1.0 | 0.00 | 0.00 | 0.00 | 54 | 1001.6 |
| 20260506013746 | 50 | 221 | 16.0 | 28.0 | 0.00 | 0.00 | 0.00 | 53 | 1001.0 |
| 20260506012721 | 51 | 184 | 18.0 | 27.0 | 0.00 | 0.00 | 0.00 | 49 | 1000.9 |
| 20260506011654 | 53 | 192 | 11.0 | 22.0 | 0.00 | 0.00 | 0.00 | 41 | 1000.7 |
| 20260506010701 | 54 | 189 | 7.0 | 19.0 | 0.00 | 0.00 | 0.00 | 39 | 1000.4 |